Date String (YYYY-MM-DD hh:mm:ss) UTC,Instrument flags,Ambient pressure (hPa),Sample flow (lpm),Bypass flow (lpm),Sample temperature (°C),Ambient temperature (°C),ASC tube jacket temperature (°C),LED temperature (°C),Box temperature (°C),Sample RH (%),Span deviation,Mass concentration (μg/m³),Mass concentration (μg/m³),Mass concentration (μg/m³)
DateTimeUTC,F1_M11,P_M11,Q1_M11,Q2_M11,T1_M11,T2_M11,T3_M11,T4_M11,T5_M11,U1_M11,ZSPAN_M11,X0_M11,X2_M11,X1_M11
2023-05-08 03:00:00,,0829.3,5.00,0.00,30.2,27.0,00.0,38.8,31.5,14.3,0000.0,0010.24,0004.03,0003.17
2023-05-08 03:01:00,,0829.3,5.00,0.00,30.2,27.3,00.0,38.7,31.6,14.2,0000.0,0010.09,0004.02,0003.17
2023-05-08 03:02:00,,0829.4,4.99,0.00,30.2,27.6,00.0,38.7,31.6,14.2,0000.0,0010.01,0004.03,0003.17
2023-05-08 03:03:00,,0829.4,5.00,0.00,30.2,27.8,00.0,38.7,31.6,14.2,0000.0,0010.11,0004.03,0003.16
2023-05-08 03:04:00,,0829.4,5.00,0.00,30.2,28.0,00.0,38.7,31.6,14.2,0000.0,0010.36,0004.04,0003.14
2023-05-08 03:05:00,,0829.4,5.01,0.00,30.2,28.2,00.0,38.7,31.7,14.2,0000.0,0011.11,0004.04,0003.13
2023-05-08 03:06:00,,0829.3,5.01,0.00,30.2,28.3,00.0,38.7,31.7,14.1,0000.0,0011.67,0004.03,0003.13
2023-05-08 03:07:00,,0829.4,5.00,0.00,30.2,28.4,00.0,38.7,31.7,14.1,0000.0,0011.20,0004.06,0003.12
2023-05-08 03:08:00,,0829.3,5.00,0.00,30.2,28.5,00.0,38.7,31.8,14.0,0000.0,0011.30,0004.07,0003.11
2023-05-08 03:09:00,,0829.4,5.01,0.00,30.3,28.6,00.0,38.6,31.7,13.9,0000.0,0011.44,0004.06,0003.11
2023-05-08 03:10:00,,0829.3,5.01,0.00,30.3,28.7,00.0,38.7,31.8,14.1,0000.0,0011.52,0004.03,0003.11
2023-05-08 03:11:00,,0829.4,5.01,0.00,30.3,28.7,00.0,38.7,31.8,14.6,0000.0,0011.28,0003.99,0003.09
2023-05-08 03:12:00,,0829.4,5.00,0.00,30.3,28.7,00.0,38.7,31.9,14.7,0000.0,0011.19,0003.97,0003.06
2023-05-08 03:13:00,,0829.5,4.99,0.00,30.3,28.8,00.0,38.7,31.8,14.7,0000.0,0011.02,0003.91,0003.04
2023-05-08 03:14:00,,0829.5,5.00,0.00,30.3,28.8,00.0,38.7,31.8,14.6,0000.0,0011.30,0003.88,0003.02
2023-05-08 03:15:00,,0829.5,4.99,0.00,30.3,28.8,00.0,38.7,31.8,14.0,0000.0,0011.08,0003.84,0002.98
2023-05-08 03:16:00,,0829.6,5.01,0.00,30.3,28.8,00.0,38.7,31.9,13.6,0000.0,0010.12,0003.78,0002.92
2023-05-08 03:17:00,,0829.6,5.01,0.00,30.3,28.8,00.0,38.7,31.9,13.4,0000.0,0009.40,0003.74,0002.88
2023-05-08 03:18:00,,0829.6,5.00,0.00,30.4,28.9,00.0,38.7,31.9,13.4,0000.0,0009.11,0003.70,0002.83
2023-05-08 03:19:00,,0829.6,5.00,0.00,30.4,28.9,00.0,38.7,31.8,13.5,0000.0,0009.09,0003.70,0002.80
2023-05-08 03:20:00,,0829.6,5.00,0.00,30.4,28.9,00.0,38.7,31.9,13.4,0000.0,0008.75,0003.69,0002.75
2023-05-08 03:21:00,,0829.6,4.99,0.00,30.4,28.9,00.0,38.7,31.9,13.6,0000.0,0007.93,0003.66,0002.71
2023-05-08 03:22:00,,0829.6,5.00,0.00,30.4,28.9,00.0,38.7,31.9,13.7,0000.0,0007.86,0003.64,0002.70
2023-05-08 03:23:00,,0829.6,5.00,0.00,30.4,28.9,00.0,38.7,31.9,13.8,0000.0,0008.32,0003.64,0002.71
2023-05-08 03:24:00,,0829.7,4.99,0.00,30.4,28.9,00.0,38.8,31.9,13.8,0000.0,0008.68,0003.66,0002.70
2023-05-08 03:25:00,,0829.7,4.99,0.00,30.4,28.9,00.0,38.8,31.9,13.7,0000.0,0009.37,0003.68,0002.69
2023-05-08 03:26:00,,0829.6,5.01,0.00,30.4,29.0,00.0,38.8,31.9,13.4,0000.0,0009.65,0003.65,0002.65
2023-05-08 03:27:00,,0829.7,5.00,0.00,30.4,29.0,00.0,38.8,31.9,13.3,0000.0,0009.71,0003.65,0002.62
2023-05-08 03:28:00,,0829.6,4.99,0.00,30.4,29.0,00.0,38.8,31.9,13.2,0000.0,0009.64,0003.63,0002.58
2023-05-08 03:29:00,,0829.7,5.00,0.00,30.5,29.0,00.0,38.8,31.9,13.2,0000.0,0009.60,0003.64,0002.56
2023-05-08 03:30:00,,0829.7,5.02,0.00,30.5,29.0,00.0,38.8,32.0,13.1,0000.0,0009.44,0003.58,0002.52
2023-05-08 03:31:00,,0829.6,5.01,0.00,30.5,29.0,00.0,38.8,32.0,13.2,0000.0,0009.32,0003.53,0002.48
2023-05-08 03:32:00,,0829.7,4.99,0.00,30.5,29.0,00.0,38.8,32.0,13.3,0000.0,0009.26,0003.49,0002.43
2023-05-08 03:33:00,,0829.7,5.00,0.00,30.5,29.1,00.0,38.8,32.0,13.2,0000.0,0009.13,0003.45,0002.38
2023-05-08 03:34:00,,0829.7,5.00,0.00,30.5,29.1,00.0,38.9,32.0,13.2,0000.0,0008.52,0003.39,0002.30
2023-05-08 03:35:00,,0829.7,5.00,0.00,30.5,29.1,00.0,38.9,32.1,13.2,0000.0,0008.01,0003.31,0002.25
2023-05-08 03:36:00,,0829.7,4.99,0.00,30.5,29.1,00.0,38.9,32.0,13.2,0000.0,0006.66,0003.24,0002.22
2023-05-08 03:37:00,,0829.6,5.00,0.00,30.6,29.1,00.0,38.9,32.0,13.2,0000.0,0007.37,0003.29,0002.24
2023-05-08 03:38:00,,0829.7,5.01,0.00,30.6,29.2,00.0,38.9,32.0,13.2,0000.0,0007.87,0003.31,0002.28
2023-05-08 03:39:00,,0829.7,4.99,0.00,30.6,29.2,00.0,38.9,32.1,13.1,0000.0,0008.54,0003.36,0002.31
2023-05-08 03:40:00,,0829.7,5.00,0.00,30.6,29.2,00.0,38.9,32.1,13.2,0000.0,0008.83,0003.38,0002.33
2023-05-08 03:41:00,,0829.7,5.00,0.00,30.6,29.2,00.0,38.9,32.1,13.1,0000.0,0009.10,0003.42,0002.35
2023-05-08 03:42:00,,0829.7,4.99,0.00,30.6,29.2,00.0,38.9,32.1,13.1,0000.0,0009.30,0003.47,0002.38
2023-05-08 03:43:00,,0829.7,5.00,0.00,30.6,29.2,00.0,39.0,32.1,13.0,0000.0,0009.38,0003.46,0002.38
2023-05-08 03:44:00,,0829.7,5.01,0.00,30.6,29.2,00.0,39.0,32.1,12.6,0000.0,0009.65,0003.44,0002.35
2023-05-08 03:45:00,,0829.7,5.00,0.00,30.6,29.2,00.0,39.0,32.1,12.4,0000.0,0009.99,0003.40,0002.32
2023-05-08 03:46:00,,0829.7,5.00,0.00,30.6,29.2,00.0,39.0,32.0,12.3,0000.0,0010.35,0003.43,0002.29
2023-05-08 03:47:00,,0829.8,4.99,0.00,30.6,29.2,00.0,39.0,32.1,12.4,0000.0,0010.41,0003.48,0002.24
2023-05-08 03:48:00,,0829.8,5.00,0.00,30.6,29.2,00.0,39.0,32.1,12.6,0000.0,0010.16,0003.42,0002.20
2023-05-08 03:49:00,,0829.8,4.99,0.00,30.6,29.2,00.0,39.0,32.1,12.6,0000.0,0010.54,0003.41,0002.17
2023-05-08 03:50:00,,0829.8,4.99,0.00,30.7,29.2,00.0,39.0,32.2,12.6,0000.0,0009.89,0003.32,0002.14
2023-05-08 03:51:00,,0829.8,5.02,0.00,30.7,29.2,00.0,39.0,32.2,12.6,0000.0,0010.02,0003.27,0002.11
2023-05-08 03:52:00,,0829.8,5.01,0.00,30.7,29.2,00.0,39.0,32.2,12.0,0000.0,0011.04,0003.26,0002.07
2023-05-08 03:53:00,,0829.8,4.99,0.00,30.7,29.2,00.0,39.0,32.2,12.4,0000.0,0011.15,0003.24,0002.04
2023-05-08 03:54:00,,0829.8,4.99,0.00,30.7,29.3,00.0,39.0,32.2,11.9,0000.0,0011.12,0003.24,0002.03
2023-05-08 03:55:00,,0829.8,5.01,0.00,30.7,29.3,00.0,39.0,32.2,12.0,0000.0,0010.90,0003.25,0002.03
2023-05-08 03:56:00,,0829.9,5.00,0.00,30.7,29.3,00.0,39.1,32.2,12.3,0000.0,0010.67,0003.29,0002.06
2023-05-08 03:57:00,,0829.9,5.00,0.00,30.7,29.3,00.0,39.1,32.2,12.3,0000.0,0010.37,0003.28,0002.08
2023-05-08 03:58:00,,0829.9,5.00,0.00,30.7,29.3,00.0,39.1,32.2,12.5,0000.0,0010.20,0003.25,0002.10
2023-05-08 03:59:00,,0829.9,5.00,0.00,30.7,29.3,00.0,39.1,32.1,12.6,0000.0,0009.70,0003.24,0002.13
